This is the latest recevied weather packets stored in our database for station/object KO6LQJ. If no packets are shown the sender has not sent any weather packets the latest 10 day(s).
| Time | Temp. | Humidity | Pressure | Rain* | Wind** | Luminosity | Snow |
|---|---|---|---|---|---|---|---|
| 1777497670 | 25.56° C | 37% | 1016.6 hPa | 0 mm | - | 407 W/m² | - |
| 1777497367 | 25.56° C | 38% | 1016.5 hPa | 0 mm | - | 586 W/m² | - |
| 1777497063 | 26.11° C | 37% | 1016.4 hPa | 0 mm | - | 488 W/m² | - |
| 1777496759 | 26.11° C | 35% | 1016.6 hPa | 0 mm | - | 436 W/m² | - |
| 1777496456 | 25.56° C | 36% | 1016.7 hPa | 0 mm | - | 471 W/m² | - |
| 1777496153 | 26.11° C | 35% | 1016.7 hPa | 0 mm | - | 224 W/m² | - |
| 1777495849 | 26.11° C | 36% | 1016.8 hPa | 0 mm | - | 713 W/m² | - |
| 1777495545 | 25.56° C | 36% | 1016.8 hPa | 0 mm | - | 708 W/m² | - |
| 1777495241 | 26.11° C | 35% | 1016.9 hPa | 0 mm | - | 701 W/m² | - |
| 1777494939 | 25.56° C | 37% | 1016.6 hPa | 0 mm | - | 706 W/m² | - |
| 1777494636 | 26.11° C | 38% | 1016.8 hPa | 0 mm | - | 712 W/m² | - |
| 1777494333 | 25.56° C | 38% | 1017.1 hPa | 0 mm | - | 713 W/m² | - |
| 1777494029 | 26.11° C | 37% | 1016.7 hPa | 0 mm | - | 710 W/m² | - |
| 1777493727 | 25.56° C | 39% | 1016.9 hPa | 0 mm | - | 703 W/m² | - |
| 1777493425 | 25.56° C | 40% | 1016.7 hPa | 0 mm | - | 705 W/m² | - |
| 1777493121 | 25.56° C | 34% | 1016.8 hPa | 0 mm | - | 705 W/m² | - |
| 1777492818 | 25.56° C | 34% | 1016.9 hPa | 0 mm | - | 708 W/m² | - |
| 1777492514 | 26.11° C | 34% | 1016.8 hPa | 0 mm | - | 717 W/m² | - |
| 1777492210 | 26.11° C | 35% | 1017.1 hPa | 0 mm | - | 737 W/m² | - |
| 1777491908 | 26.67° C | 32% | 1017 hPa | 0 mm | - | 757 W/m² | - |
| 1777491603 | 26.11° C | 31% | 1017 hPa | 0 mm | - | 769 W/m² | - |
| 1777491301 | 25.56° C | 33% | 1017 hPa | 0 mm | - | 764 W/m² | - |
| 1777490997 | 25.56° C | 32% | 1017.2 hPa | 0 mm | - | 754 W/m² | - |
| 1777490693 | 25° C | 33% | 1017.1 hPa | 0 mm | - | 755 W/m² | - |
| 1777490390 | 25.56° C | 32% | 1017.4 hPa | 0 mm | - | 744 W/m² | - |
* Rain latest hour (hover to see other rain measurements)
** Current wind speed in m/s (hover to see current wind gust speed)